KG4S Weather Reports


time (UTC)temp
C
wind
direction
speed
KPH
gust
KPH
rain 1hr
cm
rain 24hr
cm
rain mn
cm
humidity
%
barometer
mb
20260503174107 13 228 4.8 16.1 0.00 0.00 0.00 35 1020.2
20260503173607 12 300 3.2 8.0 0.00 0.00 0.00 35 1020.3
20260503173107 12 260 4.8 9.7 0.00 0.00 0.00 35 1020.5
20260503172607 13 263 4.8 9.7 0.00 0.00 0.00 35 1020.5
20260503172106 12 270 3.2 9.7 0.00 0.00 0.00 35 1020.5
20260503171627 12 252 6.4 11.3 0.00 0.00 0.00 33 1020.6
20260503171127 13 259 4.8 11.3 0.00 0.00 0.00 36 1020.7
20260503170627 12 219 1.6 6.4 0.00 0.00 0.00 36 1020.8
20260503170107 12 265 3.2 9.7 0.00 0.00 0.00 34 1020.9
20260503160107 11 58 3.2 6.4 0.00 0.00 0.00 35 1021.5
20260503150607 10 204 1.6 4.8 0.00 0.00 0.00 36 1021.8
20260503150107 10 60 3.2 4.8 0.00 0.00 0.00 38 1021.8
20260503140106 8 315 1.6 4.8 0.00 0.00 0.00 51 1021.8
20260503131107 6 146 1.6 3.2 0.00 0.00 0.00 75 1021.8
20260503130606 5 76 1.6 4.8 0.00 0.00 0.00 77 1021.8
20260503130107 5 93 1.6 4.8 0.00 0.00 0.00 78 1021.7
20260503120107 1 255 1.6 4.8 0.00 0.00 0.00 95 1021.5
20260503110607 0 262 3.2 4.8 0.00 0.00 0.00 95 1020.7
20260503110107 0 105 1.6 4.8 0.00 0.00 0.00 95 1020.6
20260503100127 0 0.0 3.2 0.00 0.00 0.00 95 1020.3
20260503090107 0 57 1.6 3.2 0.00 0.00 0.00 95 1020.2
20260503081607 0 0.0 0.0 0.00 0.00 0.00 94 1020.0
20260503081107 1 0.0 0.0 0.00 0.00 0.00 94 1019.9
20260503080647 1 0.0 1.6 0.00 0.00 0.00 94 1019.8
20260503080107 1 0.0 1.6 0.00 0.00 0.00 94 1019.8
20260503072607 1 0.0 0.0 0.00 0.00 0.00 93 1019.9
20260503072107 1 0.0 0.0 0.00 0.00 0.00 93 1019.9
20260503071607 1 0.0 0.0 0.00 0.00 0.00 93 1019.8
20260503071107 1 0.0 0.0 0.00 0.00 0.00 92 1019.7
20260503070607 1 0.0 0.0 0.00 0.00 0.00 92 1019.8
20260503070107 1 0.0 0.0 0.00 0.00 0.00 92 1019.7
20260503060107 3 0.0 0.0 0.00 0.00 0.00 84 1019.8
20260503055107 3 0.0 0.0 0.00 0.00 0.00 80 1019.9
20260503054607 3 0.0 0.0 0.00 0.00 0.00 73 1019.8
20260503054107 3 0.0 1.6 0.00 0.00 0.00 70 1019.7
20260503053607 3 0.0 1.6 0.00 0.00 0.00 69 1019.8
20260503053107 4 0.0 1.6 0.00 0.00 0.00 69 1019.8
20260503052607 4 0.0 1.6 0.00 0.00 0.00 70 1019.7
20260503052107 4 0.0 1.6 0.00 0.00 0.00 70 1019.7
20260503051607 4 0.0 3.2 0.00 0.00 0.00 71 1019.6
20260503051107 4 0.0 1.6 0.00 0.00 0.00 71 1019.7
20260503050627 4 53 0.0 1.6 0.00 0.00 0.00 71 1019.6
20260503050106 4 0.0 1.6 0.00 0.00 0.00 71 1019.6
20260503045607 5 0.0 1.6 0.00 0.00 0.00 72 1019.6
20260503045106 5 68 0.0 3.2 0.00 0.00 0.00 72 1019.5
20260503044606 5 0.0 3.2 0.00 0.00 0.00 73 1019.6
20260503044106 5 0.0 0.0 0.00 0.00 0.00 73 1019.5
20260503043606 5 0.0 1.6 0.00 0.00 0.00 73 1019.5
20260503043106 5 0.0 1.6 0.00 0.00 0.00 77 1019.5
20260503042606 5 0.0 0.0 0.00 0.00 0.00 78 1019.5
20260503042106 5 0.0 0.0 0.00 0.00 0.00 76 1019.5
20260503041606 5 0.0 1.6 0.00 0.00 0.00 74 1019.4
20260503041106 5 0.0 1.6 0.00 0.00 0.00 74 1019.2
20260503040606 5 0.0 0.0 0.00 0.00 0.00 74 1019.4
20260503040107 5 0.0 1.6 0.00 0.00 0.00 79 1019.4
20260503035627 3 0.0 1.6 0.00 0.00 0.00 89 1019.1
20260503035107 3 0.0 0.0 0.00 0.00 0.00 90 1019.2
20260503034607 4 0.0 0.0 0.00 0.00 0.00 90 1019.2
20260503034107 4 0.0 0.0 0.00 0.00 0.00 90 1019.1
20260503033607 4 0.0 3.2 0.00 0.00 0.00 89 1019.3
20260503033107 3 0.0 1.6 0.00 0.00 0.00 89 1019.2
20260503032627 3 0.0 0.0 0.00 0.00 0.00 89 1019.2
20260503032147 3 0.0 0.0 0.00 0.00 0.00 89 1019.1
20260503031607 4 0.0 0.0 0.00 0.00 0.00 89 1019.1
20260503031107 4 0.0 0.0 0.00 0.00 0.00 88 1019.1
20260503030607 4 0.0 0.0 0.00 0.00 0.00 88 1019.1
20260503030106 5 0.0 0.0 0.00 0.00 0.00 86 1019.0
20260503025606 5 0.0 0.0 0.00 0.00 0.00 84 1018.9
20260503025106 5 0.0 0.0 0.00 0.00 0.00 83 1019.0
20260503024606 5 0.0 0.0 0.00 0.00 0.00 82 1018.9
20260503024106 5 0.0 0.0 0.00 0.00 0.00 81 1018.9
20260503023606 5 0.0 0.0 0.00 0.00 0.00 81 1018.9
20260503023106 5 0.0 0.0 0.00 0.00 0.00 82 1018.8
20260503022606 5 0.0 0.0 0.00 0.00 0.00 80 1018.7
20260503022106 5 0.0 0.0 0.00 0.00 0.00 78 1018.7
20260503021606 6 0.0 0.0 0.00 0.00 0.00 77 1018.7
20260503021107 6 0.0 1.6 0.00 0.00 0.00 77 1018.7
20260503020607 6 0.0 1.6 0.00 0.00 0.00 75 1018.6
20260503020106 6 0.0 0.0 0.00 0.00 0.00 74 1018.5
20260503015606 6 0.0 0.0 0.00 0.00 0.00 73 1018.4
20260503015106 6 0.0 0.0 0.00 0.00 0.00 74 1018.3
20260503014606 6 0.0 0.0 0.00 0.00 0.00 72 1018.4
20260503014107 6 0.0 0.0 0.00 0.00 0.00 71 1018.2
20260503013607 6 0.0 0.0 0.00 0.00 0.00 69 1018.2
20260503013106 7 0.0 0.0 0.00 0.00 0.00 69 1018.1
20260503012607 7 0.0 0.0 0.00 0.00 0.00 68 1018.2
20260503012106 7 0.0 0.0 0.00 0.00 0.00 67 1018.1
20260503011607 7 0.0 0.0 0.00 0.00 0.00 67 1018.0
20260503011107 7 0.0 0.0 0.00 0.00 0.00 66 1017.9
20260503010607 7 0.0 0.0 0.00 0.00 0.00 65 1017.8
20260503010126 7 0.0 0.0 0.00 0.00 0.00 64 1017.9
20260503005627 7 0.0 0.0 0.00 0.00 0.00 63 1017.8
20260503005106 7 0.0 0.0 0.00 0.00 0.00 63 1017.6
20260503004607 8 0.0 0.0 0.00 0.00 0.00 62 1017.6
20260503004106 8 0.0 0.0 0.00 0.00 0.00 60 1017.6
20260503003608 8 0.0 0.0 0.00 0.00 0.00 60 1017.6
20260503003107 8 0.0 0.0 0.00 0.00 0.00 60 1017.5
20260503002606 8 0.0 0.0 0.00 0.00 0.00 60 1017.5
20260503002127 8 0.0 0.0 0.00 0.00 0.00 59 1017.5
20260503001606 9 0.0 0.0 0.00 0.00 0.00 57 1017.4
20260503001106 10 0.0 1.6 0.00 0.00 0.00 55 1017.3
20260503000606 10 0.0 3.2 0.00 0.00 0.00 54 1017.2
20260503000106 10 0.0 3.2 0.00 0.00 0.00 53 1017.3
20260502235607 10 213 1.6 3.2 0.00 0.00 0.00 52 1017.2
20260502235106 11 239 1.6 6.4 0.00 0.00 0.00 51 1017.3
20260502234626 11 254 0.0 3.2 0.00 0.00 0.00 51 1017.3
20260502234127 11 223 1.6 4.8 0.00 0.00 0.00 50 1017.1
20260502233606 11 226 1.6 3.2 0.00 0.00 0.00 50 1017.1
20260502233107 11 205 0.0 4.8 0.00 0.00 0.00 50 1017.1
20260502232607 10 174 0.0 3.2 0.00 0.00 0.00 50 1017.1
20260502232106 11 342 0.0 3.2 0.00 0.00 0.00 49 1016.9
20260502231607 11 139 0.0 3.2 0.00 0.00 0.00 49 1016.9
20260502231127 11 43 0.0 3.2 0.00 0.00 0.00 51 1017.0
20260502230607 10 9 1.6 6.4 0.00 0.00 0.00 50 1017.1
20260502230107 11 4 3.2 6.4 0.00 0.00 0.00 49 1017.0
20260502225607 11 2 3.2 4.8 0.00 0.00 0.00 49 1017.1
20260502225126 11 12 1.6 4.8 0.00 0.00 0.00 50 1017.1
20260502224607 11 337 1.6 6.4 0.00 0.00 0.00 48 1017.1
20260502224106 11 312 1.6 6.4 0.00 0.00 0.00 50 1017.1
20260502223606 11 46 0.0 6.4 0.00 0.00 0.00 50 1017.1
20260502223107 11 299 3.2 9.7 0.00 0.00 0.00 50 1017.2
20260502222607 11 354 1.6 6.4 0.00 0.00 0.00 51 1017.1
20260502222107 11 322 1.6 3.2 0.00 0.00 0.00 49 1017.1
20260502221607 11 317 0.0 4.8 0.00 0.00 0.00 48 1017.2
20260502221126 12 29 1.6 3.2 0.00 0.00 0.00 46 1017.1
20260502220607 12 49 1.6 3.2 0.00 0.00 0.00 48 1017.1
20260502220127 11 121 1.6 4.8 0.00 0.00 0.00 47 1017.0
20260502215607 12 42 1.6 3.2 0.00 0.00 0.00 49 1017.0
20260502215107 11 353 1.6 4.8 0.00 0.00 0.00 49 1017.0
20260502214607 11 342 1.6 4.8 0.00 0.00 0.00 49 1017.0
20260502214107 11 55 1.6 3.2 0.00 0.00 0.00 49 1017.0
20260502213607 11 25 1.6 6.4 0.00 0.00 0.00 50 1017.0
20260502213127 11 58 0.0 4.8 0.00 0.00 0.00 51 1017.0
20260502212607 11 213 1.6 4.8 0.00 0.00 0.00 50 1017.0
20260502212107 11 55 1.6 6.4 0.00 0.00 0.00 50 1017.1
20260502211607 11 270 3.2 3.2 0.00 0.00 0.00 50 1017.0
20260502211107 11 349 1.6 3.2 0.00 0.00 0.00 49 1016.8
20260502210526 11 346 1.6 6.4 0.00 0.00 0.00 49 1017.0
20260502210108 11 33 1.6 4.8 0.00 0.00 0.00 49 1016.9
20260502205607 11 339 3.2 8.0 0.00 0.00 0.00 48 1017.0
20260502205127 11 255 3.2 6.4 0.00 0.00 0.00 48 1017.2
20260502204607 11 247 4.8 6.4 0.00 0.00 0.00 49 1017.0
20260502204107 11 16 1.6 6.4 0.00 0.00 0.00 49 1017.1
20260502203607 11 25 3.2 6.4 0.00 0.00 0.00 48 1017.1
20260502203127 11 19 3.2 8.0 0.00 0.00 0.00 47 1017.2
20260502202607 11 337 1.6 8.0 0.00 0.00 0.00 48 1017.1
20260502202107 11 30 3.2 6.4 0.00 0.00 0.00 48 1017.2
20260502201627 11 31 3.2 8.0 0.00 0.00 0.00 47 1017.1
20260502201107 11 35 3.2 8.0 0.00 0.00 0.00 46 1017.1
20260502200607 11 11 3.2 8.0 0.00 0.00 0.00 45 1017.2
20260502200127 11 69 0.0 4.8 0.00 0.00 0.00 45 1017.1
20260502195607 11 253 1.6 8.0 0.00 0.00 0.00 46 1017.2
20260502195147 11 290 3.2 8.0 0.00 0.00 0.00 45 1017.2
20260502194607 11 351 3.2 6.4 0.00 0.00 0.00 47 1017.2
20260502194107 11 234 1.6 6.4 0.00 0.00 0.00 46 1017.3
20260502193607 11 28 1.6 6.4 0.00 0.00 0.00 44 1017.3
20260502193107 11 352 3.2 6.4 0.00 0.00 0.00 44 1017.3
20260502192606 11 330 1.6 4.8 0.00 0.00 0.00 44 1017.2
20260502192107 11 351 1.6 4.8 0.00 0.00 0.00 45 1017.2
20260502191647 11 258 1.6 6.4 0.00 0.00 0.00 46 1017.3
20260502191107 11 324 0.0 3.2 0.00 0.00 0.00 46 1017.2
20260502190627 11 314 3.2 6.4 0.00 0.00 0.00 45 1017.3
20260502190126 11 286 1.6 3.2 0.00 0.00 0.00 45 1017.3
20260502185626 11 247 1.6 3.2 0.00 0.00 0.00 44 1017.3
20260502185107 11 223 1.6 8.0 0.00 0.00 0.00 43 1017.3
20260502184627 11 356 3.2 6.4 0.00 0.00 0.00 43 1017.4
20260502184107 12 25 1.6 3.2 0.00 0.00 0.00 44 1017.3
20260502183606 12 64 0.0 3.2 0.00 0.00 0.00 44 1017.4
20260502183106 11 18 0.0 3.2 0.00 0.00 0.00 45 1017.4
20260502182606 11 352 1.6 4.8 0.00 0.00 0.00 45 1017.5
20260502182106 11 5 1.6 4.8 0.00 0.00 0.00 47 1017.5
20260502181607 11 0.0 3.2 0.00 0.00 0.00 48 1017.5
20260502181106 11 220 1.6 3.2 0.00 0.00 0.00 49 1017.6
20260502180606 11 164 1.6 4.8 0.00 0.00 0.00 48 1017.5
20260502180107 11 44 1.6 4.8 0.00 0.00 0.00 48 1017.6